TimeMDT,TemperatureF,Dew PointF,Humidity,Sea Level PressureIn,VisibilityMPH,Wind Direction,Wind SpeedMPH,Gust SpeedMPH,PrecipitationIn,Events,Conditions,WindDirDegrees,DateUTC
12:53 AM,75.9,50.0,40,29.91,10.0,SSW,4.6,-,N/A,,Clear,200,2013-08-25 06:53:00
1:53 AM,75.0,51.1,43,29.91,10.0,SSW,6.9,-,N/A,,Clear,200,2013-08-25 07:53:00
2:53 AM,75.9,51.1,42,29.91,10.0,SW,13.8,-,N/A,,Clear,220,2013-08-25 08:53:00
3:53 AM,73.9,51.1,45,29.91,10.0,SW,11.5,-,N/A,,Clear,230,2013-08-25 09:53:00
4:53 AM,73.0,52.0,48,29.92,10.0,SW,13.8,-,N/A,,Clear,220,2013-08-25 10:53:00
5:53 AM,72.0,52.0,49,29.93,10.0,SW,15.0,-,N/A,,Clear,220,2013-08-25 11:53:00
6:53 AM,73.9,53.1,48,29.94,10.0,SSW,12.7,-,N/A,,Clear,210,2013-08-25 12:53:00
7:53 AM,77.0,52.0,42,29.95,10.0,SW,16.1,-,N/A,,Clear,220,2013-08-25 13:53:00
8:53 AM,82.9,53.1,36,29.96,10.0,SSW,16.1,23.0,N/A,,Clear,210,2013-08-25 14:53:00
9:53 AM,86.0,53.1,32,29.96,10.0,SW,16.1,29.9,N/A,,Clear,220,2013-08-25 15:53:00
10:53 AM,89.1,53.1,29,29.95,10.0,SSW,15.0,-,N/A,,Clear,200,2013-08-25 16:53:00
11:53 AM,93.0,51.1,24,29.93,10.0,WSW,13.8,-,N/A,,Clear,240,2013-08-25 17:53:00
12:53 PM,96.1,50.0,21,29.91,10.0,South,17.3,25.3,N/A,,Clear,180,2013-08-25 18:53:00
1:53 PM,95.0,48.0,20,29.89,10.0,South,13.8,23.0,N/A,,Partly Cloudy,170,2013-08-25 19:53:00
2:53 PM,97.0,48.0,19,29.86,10.0,SSW,11.5,26.5,N/A,,Clear,200,2013-08-25 20:53:00
3:53 PM,97.0,46.0,18,29.85,10.0,South,10.4,24.2,N/A,,Clear,180,2013-08-25 21:53:00
4:53 PM,93.9,48.0,21,29.86,10.0,South,18.4,29.9,N/A,,Scattered Clouds,180,2013-08-25 22:53:00
5:53 PM,91.9,51.1,25,29.88,10.0,SW,13.8,24.2,N/A,,Partly Cloudy,230,2013-08-25 23:53:00
6:53 PM,90.0,51.1,26,29.88,10.0,SSW,10.4,-,N/A,,Mostly Cloudy,210,2013-08-26 00:53:00
7:53 PM,90.0,48.0,24,29.90,10.0,South,10.4,-,N/A,,Mostly Cloudy,190,2013-08-26 01:53:00
8:53 PM,86.0,48.9,28,29.92,10.0,South,9.2,-,N/A,,Clear,190,2013-08-26 02:53:00
9:53 PM,82.9,48.9,31,29.94,10.0,SSW,8.1,-,N/A,,Clear,210,2013-08-26 03:53:00
10:53 PM,81.0,50.0,34,29.95,10.0,South,8.1,-,N/A,,Clear,190,2013-08-26 04:53:00
11:53 PM,79.0,50.0,36,29.94,10.0,South,5.8,-,N/A,,Clear,190,2013-08-26 05:53:00